User: anonymous   Login
Location: Unspecified
(0.0000°N, 0.0000°E)
Time: 05:46:33
(UTC+00:00)
Language:

CINEMA 3 - Orbit

View from above orbital plane
View from above orbital plane
View from above satellite
View from above satellite

Ground track
Ground track

The orbit is defined by the following mean orbital elements,

1 39427U          26106.90433184 +.00000000 +00000-0 +13074-3 0 00003
2 39427  97.8282  18.1125 0092037  74.2310 286.9029 14.81400498    04
Epoch (UTC): 16 April 2026 21:42:14
Eccentricity: 0.0092037
inclination: 97.8282°
perigee height: 560 km
apogee height: 689 km
right ascension of ascending node: 18.1125°
argument of perigee: 74.2310°
revolutions per day: 14.81400498
mean anomaly at epoch: 286.9029°

The dashed part of the orbit path shows where the satellite is in the earth's shadow,  

DLR